Погода Охоны

Погода Охоны : погода сейчас, прогноз погоды и архив. Всё, что Вы хотите узнать о погоде Охоны!

Поиск расширенной информации на нашем сайте:

Другие новости

Новости СМИ2

Главная страница сайта

Новости сайта

03.07.2017

Напоминаем, что на нашем специализированном сайте Метеоцентр.Азия вы можете получить высокодетализированные автоматические прогнозы погоды по пунктам России, СНГ и мира в авиационном формате (включающие направление и скорость ветра, видимость, явления погоды, количество и форму облачности, нижнюю и верхнюю границу облачности).


Погода Охоны - сегодня

Время (UTC), дата Ветер
(°,м/с) 
Видим.   Явления Облачность Т
(°С)
Тd
(°С)
f(%) Тe
(°С)
Pmin
(гПа)
dP
(гПа)
Po
(мм)
O2
(г/м3)
Тmin Tmax R s Состояние
почвы
03 19.11.17 180 (Ю) н/о    н/о 
-0.6 -3.1 83 1009.2  -0.7  743  300  -0.6         
06 19.11.17 160 (Ю) 20000 м    10/9 150 м средняя 
[Frnb|Ac und]
-1.2 -3.2 86 -1  1009.1  0.1  743  301  -1.9    0.0     
09 19.11.17 130 (ЮВ) н/о    н/о 
-0.3 -2.7 84 -1  1008.6  -0.4  743  300           
12 19.11.17 150 (ЮВ) н/о    н/о 
-0.1 -1.4 91 +1  1007.8  -0.8  742  299           
15 19.11.17 130 (ЮВ) н/о    н/о 
+0.1 -0.7 94 +1  1007.1  -0.7  742  299           
18 19.11.17 130 (ЮВ) 20000 м    10/10 150 м 
[Frnb]
+0.3 -0.4 95 +1  1006  -1.1  741  298    +0.4       
21 19.11.17 110 (В) н/о    н/о 
+0.2 -0.3 96 +1  1005.8  -0.2  741  298           
00 20.11.17 тихо ()   н/о    н/о 
-0.1 -0.5 97 -0  1004.3  -1.4  740  298           
03 20.11.17 тихо ()   н/о    н/о 
-0.3 -0.5 99 -0  1003.8  -0.5  739  298  -0.3         
06 20.11.17 тихо ()   10 км  слаб. ливневой снег  10/10 150 м кучево-дожд. 
[Cb cap]
-0.1 -0.4 98 -0  1005.4  1.5  740  298  -0.5    равномерный
мокрый или
старый снег
100% 
09 20.11.17 230 (ЮЗ) н/о    н/о 
+0.5 -0 96 +1  1007.9  2.6  742  298           
12 20.11.17 180 (Ю) н/о    н/о 
+0.4 -0.3 95 +1  1008.7  0.8  743  299           
15 20.11.17 тихо ()   н/о    н/о 
+0.4 +0 97 1010.1  1.3  744  299           
18 20.11.17 170 (Ю) 20000 м    9/5 600 м средняя 
[Sc|Ac As]
+0.2 -0.3 96 +1  1010.4  0.3  744  300    +0.9  0.0     
21 20.11.17 160 (Ю) н/о    н/о 
+0.1 -0.4 96 +1  1011  0.6  745  300           
00 21.11.17 190 (Ю) н/о    н/о 
-0.2 -0.7 96 1010.9  0.1  744  300           
03 21.11.17 тихо ()   н/о    н/о 
-0.2 -1 94 -0  1010.6  -0.3  744  300  -0.4         
06 21.11.17 060 (СВ) 20000 м    10/10 360 м 
[Frnb]
-0.6 -1.1 96 1011  0.3  744  301  -0.6      равномерный
мокрый или
старый снег
100% 
09 21.11.17 070 (В) н/о    н/о 
-0.3 -1.3 93 1010.8  -0.2  744  300           
12 21.11.17 030 (СВ) н/о    н/о 
-0.2 -2.5 84 1010.6  0.1  744  300           
15 21.11.17 030 (СВ) н/о    н/о 
-1.4 -1.9 96 -1  1010.8  0.1  744  302           
18 21.11.17 020 (С) 20000 м    10/10 300 м 
[Frnb]
-1.2 -2.3 92 -2  1010.4  -0.4  744  301    -0.1       
21 21.11.17 030 (СВ) н/о    н/о 
-1.6 -2.8 92 -3  1010.6  0.1  744  302           
00 22.11.17 020 (С) н/о    н/о 
-2.4 -3.6 91 -4  1011.1  0.5  744  303           
03 22.11.17 350 (С) н/о    н/о 
-2.3 -3.6 91 -2  1010.9  -0.2  744  303  -2.4         
Время (UTC), дата Ветер
(°,м/с) 
Видим.   Явления Облачность Т
(°С)
Тd
(°С)
f(%) Тe
(°С)
Pmin
(гПа)
dP
(гПа)
Po
(мм)
O2
(г/м3)
Тmin Tmax R s Состояние
почвы

Для получения пояснительной информации подведите курсор к названию столбца.

ПОГОДА Охоны - архив

Всё, что Вы хотите узнать о погоде Охоны - удобно и подробно!

Выберите нужную дату (начиная с 1 января 2015* года) и нажмите кнопку "Найти".
Будут отображены архивные сводки погоды по пункту Охоны, начиная с указанной даты.


Отображать данные в формате CSV (для использования в таблицах Excel)


Внимание! Наш архив погоды предназначен исключительно для личного некоммерческого использования в познавательных целях. Если Вам необходимы официальные справки о состоянии погоды (для производственных, юридических, коммерческих и т.п. целей), обращайтесь в органы Росгидромета.

*Примечание: данная дата относится к архиву по метеостанциям СССР (Россия, СНГ, Балтия).
Архив по метеостанциям Зарубежной Европы и Азии (кроме Китая) хранится 10 дней, по другим регионам земного шара (Китай, Африка, Америка, Австралия, Океания) - 1 день.

Охоны - район местоположения метеостанции


Название, широта, долгота, высота метеостанции:
Охоны 58.6°ш. 35.6°д. 145 м над ур. моря [Российская Федерация]

Дополнительная информация

В oтличие oт бoльшинства пoгoдных сайтoв мы публикуем пoдрoбную метеoинфoрмацию в детальнoм прoфессиoнальнoм фoрмате.

Характеристики температуры и влажнoсти вoздуха измеряются на высoте 2 м в тени вдали oт зданий и деревьев.
Скoрoсть ветра измеряется на высoте 10 м (на урoвне рoста челoвека скoрoсть ветра ниже в 1.5-2 раза). Если метеoстанция нахoдится в гoрoде или в лесу, тo скoрoсть ветра занижена на 2-4 м/с пo сравнению с oткрытым местoм. Скoрoсть ветра над акватoриями крупных рек и oзёр, а также на вершинах хoлмoв на 2-5 м/с выше, чем в oбычных услoвиях.
Атмoсфернoе давление в разных тoчках местнoсти мoжет значительнo oтличаться oт давления на метеoстанции, в зависимoсти oт услoвий рельефа (при пoдъёме на 10 м давление пoнижается примернo на 1 мм рт.ст.).